sat.trackr.live / text

‹ back to catalog

STARLINK-11538 [DTC]

NORAD 62554 · 2025-006A

PAYLOAD ACTIVE UNKNOWN

§ Identity

Operator
Country
US
Launch date
2025-01-10
Launch site
AFETR
Launch vehicle
Mass (kg)
RCS (m²)

Purposes: comms

External: N2YO · Heavens-Above · Gunter

§ Orbital elements

Epoch: 2026-05-25T02:22:25.468032Z

Period
91.67 min
Inclination
43.0018°
Eccentricity
0.0001210
Mean motion
15.70892612 rev/d
Perigee alt
355.5 km
Apogee alt
357.2 km
Semi-major
6,734.5 km
B*
1.6266e-3
RAAN
38.9644°
Arg perigee
262.9284°
Mean anomaly
97.1446°
Rev number
7,862

§ Raw data

STARLINK-11538 [DTC]1 62554U 25006A   26145.09890588  .00214209  00000+0  16266-2 0  99902 62554  43.0018  38.9644 0001210 262.9284  97.1446 15.70892612 78626

JSON: /api/v1/satellites/62554 · /tle

For live sub-satellite position, see the globe view (requires WebGL).

§ Visibility from observer

Set your observer location to see the next 7 days of passes ≥ 10°. The values pass through the URL so the page stays shareable.

No JS? Fill the form by hand. The geolocation button needs JavaScript.